TimeCST,TemperatureF,Dew PointF,Humidity,Sea Level PressureIn,VisibilityMPH,Wind Direction,Wind SpeedMPH,Gust SpeedMPH,PrecipitationIn,Events,Conditions,WindDirDegrees,DateUTC
12:53 AM,45.0,28.0,52,30.32,10.0,SE,6.9,-,N/A,,Clear,140,2012-11-18 06:53:00
1:53 AM,43.0,27.0,53,30.32,10.0,SE,4.6,-,N/A,,Clear,140,2012-11-18 07:53:00
2:53 AM,43.0,27.0,53,30.31,10.0,SSE,6.9,-,N/A,,Clear,150,2012-11-18 08:53:00
3:53 AM,44.1,27.0,51,30.29,10.0,SE,10.4,-,N/A,,Clear,140,2012-11-18 09:53:00
4:53 AM,43.0,28.0,56,30.30,10.0,SE,8.1,-,N/A,,Clear,140,2012-11-18 10:53:00
5:53 AM,42.1,27.0,55,30.29,10.0,SE,6.9,-,N/A,,Clear,140,2012-11-18 11:53:00
6:53 AM,41.0,27.0,57,30.30,10.0,SE,5.8,-,N/A,,Clear,140,2012-11-18 12:53:00
7:53 AM,42.8,28.4,57,30.30,10.0,SSE,6.9,-,N/A,,Clear,150,2012-11-18 13:53:00
8:53 AM,46.9,28.0,48,30.30,10.0,SSE,8.1,-,N/A,,Clear,150,2012-11-18 14:53:00
9:53 AM,54.0,30.0,40,30.31,10.0,South,11.5,-,N/A,,Clear,170,2012-11-18 15:53:00
10:53 AM,60.1,30.9,33,30.31,10.0,South,12.7,-,N/A,,Clear,190,2012-11-18 16:53:00
11:53 AM,62.1,30.9,31,30.28,10.0,South,11.5,-,N/A,,Clear,190,2012-11-18 17:53:00
12:53 PM,64.0,30.9,29,30.24,10.0,SSW,12.7,-,N/A,,Clear,200,2012-11-18 18:53:00
1:53 PM,64.0,30.0,28,30.21,10.0,South,12.7,-,N/A,,Clear,190,2012-11-18 19:53:00
2:53 PM,63.0,28.0,27,30.20,10.0,South,16.1,-,N/A,,Clear,190,2012-11-18 20:53:00
3:53 PM,61.0,32.0,34,30.19,10.0,South,8.1,-,N/A,,Clear,180,2012-11-18 21:53:00
4:53 PM,60.1,28.9,31,30.19,10.0,SSE,6.9,-,N/A,,Clear,150,2012-11-18 22:53:00
5:53 PM,55.0,30.0,38,30.20,10.0,SSE,6.9,-,N/A,,Clear,160,2012-11-18 23:53:00
6:53 PM,55.9,30.0,37,30.22,10.0,SSE,5.8,-,N/A,,Mostly Cloudy,160,2012-11-19 00:53:00
7:53 PM,55.4,30.2,38,30.21,10.0,SSE,6.9,-,N/A,,Scattered Clouds,160,2012-11-19 01:53:00
8:53 PM,55.9,30.9,39,30.20,10.0,SSE,9.2,-,N/A,,Clear,160,2012-11-19 02:53:00
9:53 PM,55.0,32.0,42,30.19,10.0,South,11.5,-,N/A,,Clear,170,2012-11-19 03:53:00
10:53 PM,55.0,33.1,43,30.19,10.0,South,10.4,-,N/A,,Clear,170,2012-11-19 04:53:00
11:53 PM,55.0,35.1,47,30.19,10.0,SSE,10.4,-,N/A,,Clear,160,2012-11-19 05:53:00